Flag for Germany Weather past 2 weeks in Neuwied, Rhineland-Palatinate, Germany

Now
36 °F

Fog.


Feels Like: 30 °F
Forecast: 35 / 54 °F
Wind: 7 mph from West

Location: Buechel

Current Time: Mar 27, 2015 at 8:11:22 AM

Latest Report: Mar 27, 2015 at 7:20 AM


Visibility: 3 mi

Pressure: 29.95 "Hg

Humidity: 93%

Dew point: 34 °F

Location of NeuwiedLocation

Historic Weather in Neuwied — Graph

°F

Neuwied temperature yesterday

Maximum temperature yesterday: 45 °F (at 1:20 PM)
Minimum temperature yesterday: 36 °F (at 5:20 AM)
Average temperature yesterday: 38 °F

Past Weeks' High & Low Weather Summary

 TemperatureHumidityPressure
High61 °F (Mar 18, 2:20 PM)100% (Mar 14, 9:20 PM)30.42 "Hg (Mar 14, 9:20 PM)
Low27 °F (Mar 23, 4:20 AM)39% (Mar 18, 2:20 PM)29.62 "Hg (Mar 25, 3:20 AM)
Average39 °F80%30.08 "Hg
* Reported Mar 12 6:20 AM — Mar 27 6:20 AM, Neuwied, Weather by CustomWeather, © 2015

Note: Actual official high and low records may vary slightly from our data, if they occured in-between our weather recording intervals... More about our weather records

Advertising

Neuwied weather history for previous 24 hours

 ConditionsComfort  
Time TempWeatherWind HumidityBarometerVisibility
6:20 AM
Fri, Mar 27
36 °FFog.8 mph93%29.92 "Hg3 mi
5:20 AM36 °FFog.7 mph93%29.92 "Hg3 mi
4:20 AM36 °FFog.8 mph93%29.89 "Hg3 mi
3:20 AM36 °FChilly.7 mph100%29.86 "Hg3 mi
2:20 AM37 °FChilly.8 mph100%29.86 "Hg3 mi
1:20 AM37 °FChilly.7 mph100%29.83 "Hg2 mi
12:20 AM37 °FChilly.9 mph100%29.83 "Hg2 mi
11:20 PM
Thu, Mar 26
37 °FChilly.12 mph93%29.80 "Hg1 mi
10:20 PM36 °FChilly.13 mph100%29.77 "Hg2 mi
9:20 PM36 °FChilly.14 mph100%29.77 "Hg2 mi
8:20 PM36 °FChilly.13 mph93%29.77 "Hg2 mi
7:20 PM37 °FChilly.14 mph81%29.74 "Hg5 mi
6:20 PM37 °FChilly.15 mph81%29.74 "HgN/A
6:00 PM37 °FLight snow. Mostly cloudy.16 mph81%29.74 "Hg4 mi
5:20 PM37 °FLight snow. Mostly cloudy.14 mph75%29.74 "Hg4 mi
4:20 PM39 °FLight snow. Mostly cloudy.18 mph61%29.74 "Hg6 mi
3:58 PM41 °FLight rain. Partly sunny.16 mph49%29.74 "HgN/A
3:20 PM43 °FPartly sunny.15 mph46%29.71 "HgN/A
2:20 PM45 °FBroken clouds.15 mph42%29.74 "HgN/A
1:20 PM45 °FBroken clouds.15 mph46%29.74 "HgN/A
12:20 PM43 °FPartly sunny.13 mph53%29.74 "HgN/A
11:20 AM41 °FScattered clouds.13 mph61%29.77 "HgN/A
10:20 AM39 °FPartly sunny.8 mph70%29.77 "HgN/A
9:20 AM36 °FPartly sunny.7 mph81%29.77 "Hg5 mi
8:48 AM36 °FPartly sunny.7 mph81%29.80 "Hg5 mi
8:20 AM36 °FPartly sunny.6 mph81%29.80 "Hg4 mi
Weather by CustomWeather, © 2015

See weather overviewHow to use our weather pages